Date_and_time,latitude,longitude,wind_speed,RelWindDirFrom,WindDirFrom,air_pressure,air_temperature,relative_humidity,Temp,platform_speed_wrt_ground,air_pressure_at_mean_sea_level,platform_orientation
2018-06-05 23:50,50.9117283333333,-96.98255,16.3,18.2,149,979.23,18.7,63,18.38,0.0,1005.09,282.0
2018-06-06 00:00,50.91173,-96.9825483333333,15.7,18.2,145,979.12,18.7,66,18.43,0.0,1004.97,291.8
2018-06-06 00:10,50.9117283333333,-96.9825433333333,15.8,17.3,147,979.01,18.4,67,18.40,0.0,1004.88,291.8
2018-06-06 00:20,50.9117283333333,-96.9825383333333,14.7,16.8,148,979.11,18.2,68,18.37,0.0,1004.99,291.8
2018-06-06 00:30,50.9117266666667,-96.9825216666667,14.9,16.8,151,979.24,18.2,67,18.36,0.0,1005.11,291.8
2018-06-06 00:40,50.9117283333333,-96.9825316666667,14.8,16.4,149,979.04,18.4,66,18.34,0.0,1004.89,291.8
2018-06-06 00:50,50.911725,-96.9825266666667,13.8,15.5,147,978.90,17.9,71,18.29,0.0,1004.76,291.8
2018-06-06 01:00,50.9117266666667,-96.9825266666667,12.5,14.5,157,978.90,18.1,68,18.19,0.0,1004.75,142.5
2018-06-06 01:10,50.9117266666667,-96.9825266666667,11.2,13.4,165,979.06,18.8,65,18.20,0.0,1004.90,142.5
2018-06-06 01:20,50.9117383333333,-96.98251,11.3,13.9,164,979.05,18.9,66,18.28,0.0,1004.88,142.5
2018-06-06 01:30,50.9117316666667,-96.9825183333333,10.2,13.3,165,979.19,18.6,69,18.33,0.0,1005.03,142.5
2018-06-06 01:40,50.9117383333333,-96.9825416666667,10.8,15.2,166,979.22,18.0,75,18.28,0.0,1005.08,142.5
2018-06-06 01:50,50.9116966666667,-96.98253,13.4,15.7,171,979.13,18.3,71,18.18,0.0,1004.97,142.5
2018-06-06 02:00,50.9117266666667,-96.98251,4.8,9.7,185,979.08,18.2,77,18.13,0.0,1004.94,132.1
2018-06-06 02:10,50.9117266666667,-96.9825233333333,5.5,10.7,189,979.14,18.5,75,18.05,0.0,1005.00,132.1
2018-06-06 02:20,50.911725,-96.9825233333333,9.8,13.8,189,978.88,19.3,69,18.07,0.0,1004.69,132.1
2018-06-06 02:30,50.911725,-96.982525,12.4,17.5,189,978.75,19.2,69,18.20,0.0,1004.56,132.1
2018-06-06 02:40,50.9117266666667,-96.982525,12.5,17.3,193,979.00,19.2,70,18.32,0.0,1004.83,132.1
2018-06-06 02:50,50.9117266666667,-96.9825266666667,13.0,18.4,194,978.95,19.0,73,18.43,0.0,1004.78,132.1
2018-06-06 03:00,50.9117266666667,-96.9825266666667,10.3,13.6,199,979.18,18.7,77,18.46,0.0,1005.01,90.0
2018-06-06 03:10,50.9117516666667,-96.982525,11.8,17.3,200,979.42,18.5,77,18.42,0.0,1005.25,90.0
2018-06-06 03:20,50.9117366666667,-96.98253,11.7,17.3,197,979.36,18.4,79,18.38,0.0,1005.21,90.0
2018-06-06 03:30,50.9116983333333,-96.98254,12.4,16.5,194,979.27,18.4,79,18.35,0.0,1005.15,90.0
2018-06-06 03:40,50.91172,-96.9825366666667,11.4,15.8,195,979.19,18.3,80,18.35,0.0,1005.05,90.0
2018-06-06 03:50,50.9117216666667,-96.9825366666667,12.7,17.2,190,979.11,18.4,80,18.34,0.0,1004.97,90.0
2018-06-06 04:00,50.91172,-96.9825166666667,11.9,16.1,191,978.94,18.2,84,18.36,0.0,1004.79,170.2
2018-06-06 04:10,50.9117233333333,-96.9825316666667,10.5,14.2,191,978.80,17.9,87,18.32,0.0,1004.63,170.2
2018-06-06 04:20,50.911725,-96.9825333333333,8.5,12.3,201,978.95,18.0,82,18.27,0.0,1004.78,170.2
2018-06-06 04:30,50.9117266666667,-96.982535,4.9,11.7,218,979.02,18.2,79,18.21,0.0,1004.84,170.2
2018-06-06 04:40,50.9117366666667,-96.982545,5.6,10.5,298,979.18,18.1,80,18.15,0.0,1005.02,170.2
2018-06-06 04:50,50.911725,-96.9824916666667,5.6,9.4,265,979.17,17.7,79,18.06,0.0,1005.05,170.2
2018-06-06 05:00,50.9117283333333,-96.98253,5.2,9.2,255,979.09,17.7,76,17.99,0.0,1004.97,270.0
2018-06-06 05:10,50.9117266666667,-96.9825316666667,4.8,7.1,254,979.13,17.5,75,17.93,0.0,1005.02,270.0
2018-06-06 05:20,50.9117283333333,-96.9825316666667,5.7,7.6,276,979.00,17.3,73,17.85,0.0,1004.90,270.0
2018-06-06 05:30,50.91173,-96.9825316666667,7.3,9.5,290,978.98,17.0,71,17.72,0.0,1004.90,270.0
2018-06-06 05:40,50.9117283333333,-96.98253,6.3,9.1,304,978.87,16.8,74,17.57,0.0,1004.79,270.0
2018-06-06 05:50,50.9117283333333,-96.98253,7.7,14.5,316,978.79,16.6,77,17.47,0.0,1004.72,270.0
2018-06-06 06:00,50.9117366666667,-96.982545,9.9,14.9,319,978.74,16.1,76,17.40,0.0,1004.70,291.8
2018-06-06 06:10,50.9117316666667,-96.9825416666667,10.5,14.8,319,978.83,15.6,76,17.29,0.0,1004.82,291.8
2018-06-06 06:20,50.9117216666667,-96.9825283333333,10.5,15.6,318,979.03,15.1,76,17.14,0.0,1005.04,291.8
2018-06-06 06:30,50.9117133333333,-96.9825416666667,11.0,17.3,316,979.13,14.8,77,16.99,0.0,1005.16,291.8
2018-06-06 06:40,50.911725,-96.9825383333333,10.6,16.5,314,979.25,14.5,78,16.82,0.0,1005.31,291.8
2018-06-06 06:50,50.911725,-96.9825333333333,11.5,15.9,316,979.42,14.4,78,16.66,0.0,1005.50,291.8
2018-06-06 07:00,50.9117283333333,-96.9825333333333,10.1,15.8,321,979.56,14.3,79,16.53,0.0,1005.66,317.8
2018-06-06 07:10,50.9117316666667,-96.9825316666667,8.6,13.1,310,979.92,14.3,79,16.45,0.0,1006.03,317.8
2018-06-06 07:20,50.9117233333333,-96.982535,11.0,17.4,322,979.97,14.4,78,16.37,0.0,1006.09,317.8
2018-06-06 07:30,50.9117266666667,-96.9825283333333,11.1,18.4,311,980.03,14.2,79,16.30,0.0,1006.18,317.8
2018-06-06 07:40,50.9117383333333,-96.9825183333333,11.8,19.5,317,980.21,14.0,80,16.20,0.0,1006.38,317.8
2018-06-06 07:50,50.9117333333333,-96.9825316666667,12.8,19.9,316,980.34,13.7,82,16.09,0.0,1006.54,317.8
2018-06-06 08:00,50.9117316666667,-96.9825266666667,10.5,16.6,312,980.66,13.5,83,15.98,0.0,1006.90,90.0
2018-06-06 08:10,50.9117333333333,-96.9825266666667,12.5,19.3,309,980.79,13.4,84,15.87,0.0,1007.07,90.0
2018-06-06 08:20,50.911725,-96.9825266666667,12.2,19.1,309,980.94,13.2,85,15.75,0.0,1007.25,90.0
2018-06-06 08:30,50.9117516666667,-96.9825,10.4,15.6,305,981.12,13.0,87,15.62,0.0,1007.45,90.0
2018-06-06 08:40,50.911745,-96.9825233333333,10.6,14.6,303,981.03,12.7,88,15.48,0.0,1007.38,90.0
2018-06-06 08:50,50.911725,-96.982525,9.5,13.8,301,981.10,12.4,89,15.34,0.0,1007.46,90.0
2018-06-06 09:00,50.91173,-96.982525,9.5,12.7,296,981.10,12.1,91,15.20,0.0,1007.48,113.9
2018-06-06 09:10,50.911735,-96.98253,8.5,11.7,297,981.13,11.9,93,15.03,0.0,1007.52,113.9
2018-06-06 09:20,50.911735,-96.9825283333333,8.8,11.7,297,981.17,11.7,94,14.89,0.0,1007.57,113.9
2018-06-06 09:30,50.9117433333333,-96.982535,10.5,13.9,295,981.21,11.6,95,14.74,0.0,1007.63,113.9
2018-06-06 09:40,50.9117433333333,-96.9825366666667,9.7,13.0,292,981.36,11.5,96,14.59,0.0,1007.80,113.9
2018-06-06 09:50,50.9117366666667,-96.9825316666667,9.9,12.6,289,981.44,11.3,97,14.44,0.0,1007.90,113.9
2018-06-06 10:00,50.9117366666667,-96.9825316666667,9.7,12.9,291,981.50,11.3,98,14.32,0.0,1007.97,47.9
2018-06-06 10:10,50.9117383333333,-96.9825316666667,10.2,14.1,291,981.50,11.2,99,14.22,0.0,1007.99,47.9
2018-06-06 10:20,50.9117216666667,-96.98251,10.9,15.4,290,981.60,11.2,99,14.09,0.0,1008.10,47.9
2018-06-06 10:30,50.911725,-96.982515,9.8,12.9,286,981.79,11.4,99,14.01,0.0,1008.30,47.9
2018-06-06 10:40,50.9117216666667,-96.98253,10.4,15.6,285,981.81,11.4,99,13.96,0.0,1008.33,47.9
2018-06-06 10:50,50.911725,-96.98253,9.7,13.2,288,981.88,11.1,99,13.87,0.0,1008.43,47.9
2018-06-06 11:00,50.9117266666667,-96.9825266666667,10.7,15.0,289,981.99,11.2,99,13.81,0.0,1008.54,90.0
2018-06-06 11:10,50.9117266666667,-96.982525,10.8,14.1,291,982.06,11.6,99,13.81,0.0,1008.61,90.0
2018-06-06 11:20,50.911725,-96.9825233333333,9.5,12.9,289,982.16,11.9,99,13.86,0.0,1008.71,90.0
2018-06-06 11:30,50.9117283333333,-96.9825283333333,9.4,13.7,288,982.26,11.9,99,13.90,0.0,1008.81,90.0
2018-06-06 11:40,50.9117416666667,-96.9825216666667,9.7,14.5,290,982.37,12.0,99,13.93,0.0,1008.93,90.0
2018-06-06 11:50,50.91174,-96.98252,10.0,16.1,290,982.45,12.2,98,13.96,0.0,1009.01,90.0
2018-06-06 12:00,50.9117416666667,-96.9825316666667,10.4,15.9,291,982.61,12.4,96,14.01,0.0,1009.17,360.0
2018-06-06 12:10,50.91174,-96.9825283333333,11.5,15.7,292,982.63,12.6,95,14.06,0.0,1009.17,360.0
2018-06-06 12:20,50.9117383333333,-96.9825266666667,10.6,16.3,298,982.85,12.8,94,14.12,0.0,1009.38,360.0
2018-06-06 12:30,50.9117366666667,-96.9825283333333,9.8,15.0,297,983.03,12.8,93,14.19,0.0,1009.57,360.0
2018-06-06 12:40,50.9117366666667,-96.9825283333333,10.5,16.9,300,983.03,13.2,91,14.26,0.0,1009.55,360.0
2018-06-06 12:50,50.911735,-96.9825266666667,9.7,17.3,309,983.17,13.5,89,14.36,0.0,1009.69,360.0
2018-06-06 13:00,50.911735,-96.982525,9.7,15.9,306,983.34,13.4,88,14.45,0.0,1009.84,0.0
2018-06-06 13:10,50.9117233333333,-96.9825233333333,9.6,16.8,307,983.43,13.4,87,14.50,0.0,1009.93,0.0
2018-06-06 13:20,50.91173,-96.9825516666667,9.7,15.7,309,983.51,13.5,86,14.54,0.0,1010.01,0.0
2018-06-06 13:30,50.9117383333333,-96.9825266666667,8.9,13.6,308,983.74,13.5,86,14.58,0.0,1010.23,0.0
2018-06-06 13:40,50.9117416666667,-96.9825466666667,9.6,15.9,310,983.88,13.5,85,14.61,0.0,1010.37,0.0
2018-06-06 13:50,50.91174,-96.9825283333333,8.5,13.9,309,984.03,13.7,84,14.65,0.0,1010.50,0.0
2018-06-06 14:00,50.9117333333333,-96.982525,10.3,16.3,311,983.99,13.8,82,14.68,0.0,1010.45,90.0
2018-06-06 14:10,50.9117316666667,-96.9825233333333,8.9,14.1,317,984.13,13.8,81,14.72,0.0,1010.58,90.0
2018-06-06 14:20,50.9117333333333,-96.9825216666667,8.7,15.2,310,984.27,13.9,80,14.75,0.0,1010.72,90.0
2018-06-06 14:30,50.9117316666667,-96.9825233333333,9.2,16.0,300,984.51,14.1,80,14.79,0.0,1010.94,90.0
2018-06-06 14:40,50.9117316666667,-96.9825233333333,10.7,16.6,301,984.46,14.0,79,14.82,0.0,1010.89,90.0
2018-06-06 14:50,50.9117366666667,-96.9825383333333,9.9,15.2,307,984.62,14.2,77,14.84,0.0,1011.04,90.0
2018-06-06 15:00,50.91173,-96.9825283333333,10.1,15.8,298,984.70,14.4,76,14.89,0.0,1011.12,360.0
2018-06-06 15:10,50.9117283333333,-96.9825283333333,9.7,15.0,305,984.89,14.5,75,14.96,0.0,1011.30,360.0
2018-06-06 15:20,50.9117416666667,-96.9825316666667,9.8,17.2,309,984.95,15.0,72,15.00,0.0,1011.34,360.0
2018-06-06 15:30,50.9117316666667,-96.98253,9.8,15.2,301,985.11,14.6,74,14.94,0.0,1011.52,360.0
2018-06-06 15:40,50.9117283333333,-96.982525,9.3,13.6,309,985.33,14.9,70,16.69,0.0,1011.72,360.0
2018-06-06 15:50,50.9117283333333,-96.9825283333333,10.8,18.9,327,985.32,15.5,66,23.51,0.0,1011.68,360.0
2018-06-06 16:00,50.9117283333333,-96.9825283333333,14.3,20.6,334,985.28,15.9,60,22.75,0.0,1011.62,142.5
2018-06-06 16:10,50.9117283333333,-96.98253,12.1,19.0,327,985.39,16.1,59,18.68,0.0,1011.71,142.5
2018-06-06 16:20,50.9117233333333,-96.9825166666667,14.3,19.5,341,985.37,16.6,57,16.57,0.0,1011.67,142.5
2018-06-06 16:30,50.9117283333333,-96.9825233333333,11.7,19.8,336,985.51,16.4,58,15.55,0.0,1011.83,142.5
2018-06-06 16:40,50.9117316666667,-96.9825216666667,11.3,21.0,330,985.54,16.8,55,15.28,0.0,1011.83,142.5
2018-06-06 16:50,50.9117466666667,-96.982525,13.2,18.9,340,985.68,17.2,54,15.17,0.0,1011.95,142.5
2018-06-06 17:00,50.9117383333333,-96.982525,10.9,16.6,330,985.76,17.6,52,15.05,0.0,1012.00,360.0
2018-06-06 17:10,50.9117366666667,-96.9825266666667,10.1,19.8,324,985.75,17.4,54,15.21,0.0,1011.98,360.0
2018-06-06 17:20,50.911735,-96.9825266666667,10.2,18.0,322,985.81,17.7,52,15.39,0.0,1012.05,360.0
2018-06-06 17:30,50.9117216666667,-96.9825133333333,8.4,14.5,325,985.94,17.6,52,15.53,0.0,1012.17,360.0
2018-06-06 17:40,50.9117633333333,-96.982545,8.4,13.6,320,985.94,18.3,51,15.62,0.0,1012.10,360.0
2018-06-06 17:50,50.9117366666667,-96.982525,8.7,14.6,310,985.98,18.5,51,15.56,0.0,1012.12,360.0
2018-06-06 18:00,50.9117333333333,-96.9825283333333,8.3,15.5,326,986.10,18.1,51,15.33,0.0,1012.25,0.0
2018-06-06 18:10,50.911735,-96.982525,6.6,10.8,322,986.21,18.5,51,19.51,0.0,1012.33,0.0
2018-06-06 18:20,50.9117366666667,-96.98253,8.1,15.8,305,986.21,18.5,50,19.37,0.0,1012.33,0.0
2018-06-06 18:30,50.911735,-96.9825266666667,7.1,15.1,315,986.25,18.6,49,17.42,0.0,1012.36,0.0
2018-06-06 18:40,50.911735,-96.9825266666667,8.4,13.1,288,986.18,18.6,49,16.10,0.0,1012.27,0.0
2018-06-06 18:50,50.911735,-96.9825283333333,8.6,16.8,323,986.34,19.3,46,15.78,0.0,1012.38,0.0
2018-06-06 19:00,50.9117333333333,-96.9825283333333,9.7,16.6,325,986.36,19.3,45,15.84,0.0,1012.40,90.0
2018-06-06 19:10,50.9117333333333,-96.9825266666667,8.1,14.7,320,986.48,19.5,44,15.95,0.0,1012.51,90.0
2018-06-06 19:20,50.9117333333333,-96.9825283333333,8.4,14.0,291,986.39,19.7,44,16.06,0.0,1012.41,90.0
2018-06-06 19:30,50.91173,-96.982535,7.8,13.2,325,986.44,20.3,42,16.23,0.0,1012.41,90.0
2018-06-06 19:40,50.911735,-96.982545,7.7,14.5,328,986.50,20.2,41,16.29,0.0,1012.46,90.0
2018-06-06 19:50,50.911735,-96.9825383333333,8.7,13.7,336,986.54,20.1,42,16.32,0.0,1012.52,90.0
2018-06-06 20:00,50.9117366666667,-96.9825316666667,7.4,13.4,322,986.61,20.8,39,16.54,0.0,1012.55,360.0
2018-06-06 20:10,50.9117333333333,-96.98253,8.5,14.5,323,986.60,20.6,38,16.75,0.0,1012.55,360.0
2018-06-06 20:20,50.9117333333333,-96.98253,9.8,18.5,340,986.66,20.5,37,16.83,0.0,1012.60,360.0
2018-06-06 20:30,50.9117333333333,-96.9825333333333,8.5,19.0,329,986.63,20.7,35,16.79,0.0,1012.57,360.0
2018-06-06 20:40,50.9117316666667,-96.9825333333333,8.7,16.0,310,986.67,21.1,33,16.79,0.0,1012.56,360.0
2018-06-06 20:50,50.9117316666667,-96.9825333333333,6.5,14.7,330,986.77,21.2,34,16.94,0.0,1012.66,360.0
2018-06-06 21:00,50.9117333333333,-96.9825333333333,6.5,11.8,143,987.02,18.0,71,16.94,0.0,1013.05,270.0
2018-06-06 21:10,50.9117316666667,-96.98254,10.4,12.6,141,986.94,15.2,83,16.83,0.0,1013.09,270.0
2018-06-06 21:20,50.9117383333333,-96.9825183333333,10.7,13.5,117,986.88,15.5,83,16.67,0.0,1012.99,270.0
2018-06-06 21:30,50.9117383333333,-96.98253,10.8,14.5,111,986.85,15.6,83,16.55,0.0,1012.95,270.0
2018-06-06 21:40,50.9117283333333,-96.9825666666667,10.4,12.3,113,986.91,15.6,80,16.47,0.0,1013.01,270.0
2018-06-06 21:50,50.911725,-96.9825183333333,9.5,12.6,121,986.96,15.3,82,16.42,0.0,1013.05,270.0
2018-06-06 22:00,50.9117283333333,-96.9825233333333,10.1,12.2,116,986.89,15.4,83,16.37,0.0,1012.99,90.0
2018-06-06 22:10,50.911725,-96.9825366666667,10.3,13.6,108,986.89,16.0,82,16.35,0.0,1012.96,90.0
2018-06-06 22:20,50.9117266666667,-96.982525,10.6,12.3,98,986.87,15.8,82,16.32,0.0,1012.94,90.0
2018-06-06 22:30,50.9117333333333,-96.9825366666667,10.9,12.9,90,986.85,16.1,79,16.27,0.0,1012.89,90.0
2018-06-06 22:40,50.911725,-96.9825166666667,11.1,13.0,90,986.84,16.6,75,16.25,0.0,1012.85,90.0
2018-06-06 22:50,50.9117266666667,-96.9825233333333,10.3,12.9,98,986.87,16.7,73,16.27,0.0,1013.02,90.0
2018-06-06 23:00,50.9117233333333,-96.9825266666667,9.0,10.3,99,986.96,16.4,75,16.28,0.0,1013.25,360.0
2018-06-06 23:10,50.9117233333333,-96.9825283333333,9.2,10.6,106,986.90,16.0,76,16.29,0.0,1013.21,360.0
2018-06-06 23:20,50.9117233333333,-96.98253,10.3,11.7,100,986.85,15.8,76,16.28,0.0,1013.15,360.0
2018-06-06 23:30,50.9117483333333,-96.9825383333333,10.8,12.4,89,986.83,16.0,75,16.25,0.0,1013.13,360.0
